Location: Unspecified
(40.7945°N, 0.0000°E)
Time: 12:02:11
(UTC+00:00)

TIGRISAT - Pass Details

Date: 23 August 2019
Orbit: 605 x 689 km, 97.7° (Epoch: 15 September)

Event Time Altitude Azimuth Distance (km) Brightness Sun altitude
Rises 19:43:06 0° 32° (NNE) 3,023 ? -10.8°
Reaches altitude 10° 19:46:18 10° 55° (NE) 2,087 ? -11.3°
Maximum altitude 19:48:53 15° 90° (E) 1,758 ? -11.7°
Enters shadow 19:49:12 15° 95° (E) 1,761 ? -11.8°
